|
NORAD ID: 36024 Int'l Code: 1997-051VF
Perigee: 691.0 km
Apogee: 748.1 km
Inclination: 86.5 °
Period: 99.0 minutes
Semi major axis: 7090 km
Launch date: September 14, 1997
Source: United States (US)
Note: This is SATELLITE DEBRIS
Two Line Element Set (TLE):
1 36024U 97051VF 13142.13246573 .00021129 00000-0 49388-2 0 4274
2 36024 086.4864 198.9126 0040251 163.9225 225.7671 14.54057813201673
Source:
NASA's NSSDC Master Catalog entry for IRIDIUM 33 DEB
|